Printer-friendly version
Follow the MPC on Twitter Follow the MPC on Facebook The MPC blog
Minor Planet Center

MPEC 2010-J43 : 2010 JM33

The following Minor Planet Electronic Circular may be linked-to from your own Web pages, but must not otherwise be redistributed electronically.

A form allowing access to any MPEC is at the bottom of this page.


Read MPEC 2010-J42 Read MPEC 2010-J44


M.P.E.C. 2010-J43                                Issued 2010 May 8, 17:56 UT

     The Minor Planet Electronic Circulars contain information on unusual
         minor planets and routine data on comets.  They are published
   on behalf of Commission 20 of the International Astronomical Union by the
          Minor Planet Center, Smithsonian Astrophysical Observatory,
                          Cambridge, MA 02138, U.S.A.

             Prepared using the Tamkin Foundation Computer Network

                              MPC@CFA.HARVARD.EDU
       URL http://www.minorplanetcenter.org/iau/mpc.html  ISSN 1523-6714

                                   2010 JM33

Observations:
     K10J33M* C2010 05 07.19270 13 32 30.15 -13 37 04.8          22.1 V EJ043G96
     K10J33M  C2010 05 07.19866 13 32 29.25 -13 37 39.5          22.0 V EJ043G96
     K10J33M  C2010 05 07.20460 13 32 28.53 -13 38 16.0          21.6 V EJ043G96
     K10J33M  C2010 05 07.21056 13 32 27.78 -13 38 50.0          22.2 V EJ043G96
     K10J33M  C2010 05 07.25845 13 32 21.31 -13 43 33.6          22.4 V EJ043G96
     K10J33M  C2010 05 07.26133 13 32 20.93 -13 43 50.8          21.9 V EJ043G96
     K10J33M  C2010 05 07.26421 13 32 20.55 -13 44 07.2          22.2 V EJ043G96
     K10J33M  C2010 05 07.26708 13 32 20.17 -13 44 24.6          22.1 V EJ043G96
     K10J33M  C2010 05 07.30036 13 32 15.68 -13 47 40.8          22.2 V EJ043G96
     K10J33M  C2010 05 07.30705 13 32 14.86 -13 48 19.2                 EJ043G96
     K10J33M  C2010 05 07.31042 13 32 14.36 -13 48 39.8          21.2 V EJ043G96
     K10J33M  C2010 05 08.21704 13 30 50.60 -15 24 28.2          21.9 R EJ043H01
     K10J33M  C2010 05 08.22682 13 30 49.15 -15 25 34.1          21.2 R EJ043H01
     K10J33M  C2010 05 08.23393 13 30 48.11 -15 26 22.2          21.0 R EJ043H01
     K10J33M  C2010 05 08.24317 13 30 46.74 -15 27 24.4          20.7 R EJ043H01

Observer details:
G96 Mt. Lemmon Survey.  Observer R. E. Hill.  Measurers J. D. Ahern,
    E. C. Beshore, A. Boattini, G. J. Garradd, A. R. Gibbs, A. D. Grauer,
    R. E. Hill, R. A. Kowalski, S. M. Larson, R. H. McNaught.  1.5-m reflector
    + CCD.
H01 Magdalena Ridge Observatory, Socorro.  Observers W. H. Ryan, E. V. Ryan.
    Measurer W. H. Ryan.  2.4-m f/8.9 reflector + CCD.

Orbital elements:
2010 JM33                                                Earth MOID = 0.0304 AU
Epoch 2010 July 23.0 TT = JDT 2455400.5                 MPC
M  15.09543              (2000.0)            P               Q
n   0.40663078     Peri.  228.50079     +0.01265426     +0.99786021
a   1.8044127      Node    42.35562     -0.88670696     +0.04084937
e   0.4593992      Incl.    5.46353     -0.46215868     -0.05105225
P   2.42           H   26.5           G   0.15           U   8
Residuals in seconds of arc
100507 G96  0.5+  0.2+    100507 G96  0.3-  0.4-    100507 G96  0.3-  0.2+
100507 G96  1.2-  0.7+    100507 G96  0.2-  0.2+    100508 H01  0.3-  0.0
100507 G96  0.3-  0.7-    100507 G96  0.1-  0.2-    100508 H01  0.3-  0.1+
100507 G96  0.3+  0.5+    100507 G96  0.5-  0.1-    100508 H01  0.1-  0.1+
100507 G96  0.4-  0.2-    100507 G96  0.5+  0.9+    100508 H01  0.1-  0.3+

Ephemeris:
2010 JM33                a,e,i = 1.80, 0.46, 5                   q = 0.9755
Date    TT    R. A. (2000) Decl.     Delta      r     Elong.  Phase     V
2010 05 04    13 36.57   -09 19.9    0.0894   1.094   162.5    16.1    22.3
2010 05 09    13 29.44   -16 55.6    0.0649   1.070   157.7    21.0    21.7
2010 05 14    13 14.91   -32 36.9    0.0437   1.048   148.2    30.6    21.1
2010 05 19    12 08.77   -66 11.5    0.0309   1.028   122.3    56.2    21.0
2010 05 24    03 08.13   -66 19.1    0.0359   1.012    87.6    90.4    22.5
2010 05 29    02 15.44   -43 57.8    0.0537   0.998    71.7   105.4    24.1

Carl W. Hergenrother         (C) Copyright 2010 MPC           M.P.E.C. 2010-J43

Read MPEC 2010-J42 Read MPEC 2010-J44


MPEC number:

Enter an MPEC number in one of the following forms:

  • 1997-B01 (the full form)
  • J97B01 (the packed version of the full form)
  • B01 (the abbreviated form)

Valid HTML 4.01!